period_start,C,m1,H,J0,J1,J2,J3,J4,J5,JA,JB,JC,JD,JJ,JK,JN,#
2013-08-23 00:00:27,-0.01,0.05,0.00,24.76,26.65,28.50,5.79,30.33,1021.68,2054.00,3480.03,3354.28,3640.88,348.57,322.34,8.02,0000 0000 0000 0000 000000
2013-08-23 00:01:27,0.04,0.05,0.00,24.77,26.65,28.48,6.04,30.25,1021.63,2054.00,3480.01,3354.15,3640.64,350.28,323.89,8.03,0000 0000 0000 0000 000000
2013-08-23 00:02:28,0.04,0.05,0.00,24.79,26.65,28.47,5.79,30.13,1021.67,2054.00,3480.00,3354.08,3640.64,349.34,323.00,8.03,0000 0000 0000 0000 000000
2013-08-23 00:03:28,0.02,0.05,0.00,24.76,26.65,28.50,6.03,30.25,1021.59,2054.00,3480.00,3354.05,3640.42,350.40,323.42,8.04,0000 0000 0000 0000 000000
2013-08-23 00:04:28,0.02,0.05,0.00,24.72,26.65,28.48,6.02,30.21,1021.58,2053.99,3480.00,3354.03,3640.21,351.30,324.86,8.04,0000 0000 0000 0000 000000
2013-08-23 00:05:28,0.01,0.05,0.00,24.73,26.66,28.50,5.93,30.33,1021.57,2053.99,3480.00,3354.01,3640.14,349.88,323.63,8.05,0000 0000 0000 0000 000000
2013-08-23 00:06:29,0.01,0.05,0.00,24.71,26.67,28.47,5.90,30.50,1021.58,2053.99,3480.00,3354.00,3640.06,348.88,322.70,8.06,0000 0000 0000 0000 000000
2013-08-23 00:07:29,0.01,0.05,0.00,24.70,26.67,28.46,6.02,30.46,1021.62,2053.99,3479.99,3354.00,3640.02,350.15,323.76,8.06,0000 0000 0000 0000 000000
2013-08-23 00:08:29,0.00,0.05,0.00,24.70,26.67,28.51,6.02,30.04,1021.55,2053.99,3479.99,3354.00,3640.02,350.10,324.04,8.07,0000 0000 0000 0000 000000
2013-08-23 00:09:30,0.00,0.05,0.00,24.72,26.67,28.49,5.92,30.33,1021.56,2053.99,3479.99,3354.00,3640.01,349.86,322.97,8.07,0000 0000 0000 0000 000000
2013-08-23 00:10:30,0.00,0.05,0.00,24.72,26.67,28.50,6.01,30.25,1021.57,2053.99,3479.96,3354.00,3640.00,351.30,324.87,8.08,0000 0000 0000 0000 000000
2013-08-23 00:11:30,0.00,0.05,0.00,24.77,26.67,28.48,5.95,30.21,1021.56,2053.99,3479.92,3354.00,3640.00,350.03,323.64,8.08,0000 0000 0000 0000 000000
2013-08-23 00:12:30,0.00,0.05,0.00,24.81,26.68,28.52,5.87,30.13,1021.59,2053.98,3479.89,3354.00,3640.00,349.79,323.38,8.09,0000 0000 0000 0000 000000
2013-08-23 00:13:31,0.00,0.05,0.00,24.82,26.69,28.47,5.92,30.21,1021.55,2053.98,3479.91,3354.00,3640.00,349.32,323.22,8.10,0000 0000 0000 0000 000000
2013-08-23 00:14:31,0.00,0.05,0.00,24.86,26.70,28.54,5.92,30.04,1021.54,2053.98,3479.93,3354.00,3640.00,349.73,323.37,8.10,0000 0000 0000 0000 000000
2013-08-23 00:15:31,0.00,0.05,0.00,24.42,26.70,28.53,5.92,30.29,1021.56,2053.96,3479.73,3354.00,3640.00,350.57,324.93,8.11,0000 0000 0000 0000 000000
2013-08-23 00:16:32,0.01,0.05,0.00,23.92,26.70,28.43,6.00,30.46,1021.56,2053.95,3479.61,3353.98,3640.00,349.77,324.31,8.11,0000 0000 0000 0000 000000
2013-08-23 00:17:32,0.01,0.05,0.00,23.68,26.70,28.34,5.90,30.25,1021.54,2053.92,3479.49,3353.96,3640.00,350.21,324.57,8.12,0000 0000 0000 0000 000000
2013-08-23 00:18:32,0.03,0.05,0.00,23.51,26.70,28.30,6.14,30.58,1021.53,2053.92,3479.23,3353.95,3640.00,350.07,325.22,8.13,0000 0000 0000 0000 000000
2013-08-23 00:19:32,0.01,0.05,0.00,23.53,26.70,28.23,6.09,30.63,1021.51,2053.88,3479.09,3353.96,3640.00,350.89,325.77,8.13,0000 0000 0000 0000 000000
2013-08-23 00:20:33,-0.00,0.05,0.00,23.39,26.71,28.18,5.97,30.50,1021.50,2053.89,3479.07,3353.95,3640.00,349.66,324.94,8.14,0000 0000 0000 0000 000000
2013-08-23 00:21:33,0.01,0.05,0.00,23.39,26.72,28.17,5.96,30.38,1021.51,2053.91,3479.09,3353.96,3640.00,349.42,324.56,8.14,0000 0000 0000 0000 000000
2013-08-23 00:22:33,0.01,0.05,0.00,23.42,26.72,28.11,6.02,30.67,1021.52,2053.89,3479.10,3353.94,3639.99,349.84,324.92,8.15,0000 0000 0000 0000 000000
2013-08-23 00:23:33,-0.01,0.05,0.00,23.39,26.72,28.12,5.92,30.58,1021.50,2053.91,3479.15,3353.95,3639.98,349.88,325.20,8.16,0000 0000 0000 0000 000000
2013-08-23 00:24:34,0.00,0.05,0.00,23.34,26.72,28.13,5.89,30.46,1021.51,2053.91,3479.13,3353.95,3639.98,349.31,324.51,8.16,0000 0000 0000 0000 000000
2013-08-23 00:25:34,-0.02,0.05,0.00,23.34,26.72,28.14,5.96,30.63,1021.52,2053.82,3479.06,3353.90,3639.97,349.27,324.49,8.17,0000 0000 0000 0000 000000
2013-08-23 00:26:34,0.01,0.05,0.00,23.36,26.72,28.11,5.98,30.42,1021.51,2053.72,3479.03,3353.78,3639.86,349.97,324.58,8.17,0000 0000 0000 0000 000000
2013-08-23 00:27:35,-0.01,0.05,0.00,23.30,26.72,28.07,6.02,30.33,1021.51,2053.76,3479.01,3353.74,3639.90,349.40,324.56,8.18,0000 0000 0000 0000 000000
2013-08-23 00:28:35,-0.03,0.05,0.00,23.43,26.72,28.07,5.92,30.63,1021.51,2053.73,3479.00,3353.66,3639.87,349.27,324.38,8.18,0000 0000 0000 0000 000000
2013-08-23 00:29:35,0.06,0.05,0.00,23.64,26.72,28.03,6.00,30.33,1021.50,2053.80,3479.00,3353.62,3639.84,349.97,324.81,8.19,0000 0000 0000 0000 000000
2013-08-23 00:30:36,0.02,0.05,0.00,23.71,26.72,28.02,5.83,30.46,1021.50,2053.81,3479.00,3353.68,3639.86,349.09,323.90,8.20,0000 0000 0000 0000 000000
2013-08-23 00:31:36,0.03,0.05,0.00,23.74,26.72,28.08,6.13,30.25,1021.51,2053.84,3479.00,3353.61,3639.80,351.48,325.92,8.20,0000 0000 0000 0000 000000
2013-08-23 00:32:36,0.02,0.05,0.00,23.67,26.72,28.07,5.97,30.50,1021.50,2053.85,3479.00,3353.57,3639.76,350.11,324.88,8.21,0000 0000 0000 0000 000000
2013-08-23 00:33:37,0.01,0.05,0.00,23.43,26.72,28.04,6.07,30.33,1021.50,2053.74,3479.00,3353.48,3639.56,350.58,325.58,8.21,0000 0000 0000 0000 000000
2013-08-23 00:34:37,-0.03,0.05,0.00,23.27,26.72,27.99,6.10,30.46,1021.50,2053.61,3479.00,3353.41,3639.36,350.30,325.50,8.22,0000 0000 0000 0000 000000
2013-08-23 00:35:38,-0.04,0.05,0.00,23.21,26.72,27.97,5.95,30.46,1021.50,2053.52,3479.00,3353.30,3639.37,350.19,325.13,8.23,0000 0000 0000 0000 000000
2013-08-23 00:36:38,-0.10,0.05,0.00,23.19,26.72,27.93,6.03,30.38,1021.50,2053.35,3478.99,3353.15,3639.33,350.35,325.35,8.23,0000 0000 0000 0000 000000
2013-08-23 00:37:38,-0.04,0.05,0.00,23.25,26.72,27.92,6.08,30.42,1021.51,2053.45,3478.99,3353.13,3639.23,349.89,325.16,8.24,0000 0000 0000 0000 000000
2013-08-23 00:38:38,0.07,0.05,0.00,23.25,26.72,27.90,5.98,30.38,1021.51,2053.56,3478.99,3353.19,3639.26,350.37,325.95,8.24,0000 0000 0000 0000 000000
2013-08-23 00:39:38,0.06,0.05,0.00,23.20,26.72,27.92,5.88,30.54,1021.50,2053.52,3478.99,3353.21,3639.22,349.41,325.06,8.25,0000 0000 0000 0000 000000
2013-08-23 00:40:39,-0.06,0.05,0.00,23.16,26.71,27.92,6.03,30.54,1021.51,2053.52,3478.97,3353.19,3639.22,349.58,324.67,8.25,0000 0000 0000 0000 000000
2013-08-23 00:41:39,0.04,0.05,0.00,23.18,26.71,27.91,5.99,30.67,1021.51,2053.53,3478.97,3353.17,3639.16,349.99,325.32,8.26,0000 0000 0000 0000 000000
2013-08-23 00:42:39,0.01,0.05,0.00,23.07,26.70,27.88,5.92,30.67,1021.50,2053.39,3478.98,3353.11,3639.09,349.57,325.03,8.27,0000 0000 0000 0000 000000
2013-08-23 00:43:39,-0.07,0.05,0.00,23.09,26.70,27.87,5.98,30.54,1021.50,2053.41,3478.93,3353.08,3639.10,349.64,324.80,8.27,0000 0000 0000 0000 000000
2013-08-23 00:44:39,-0.03,0.05,0.00,23.23,26.70,27.86,6.01,30.50,1021.50,2053.39,3478.91,3353.10,3639.08,348.88,324.47,8.28,0000 0000 0000 0000 000000
2013-08-23 00:45:40,0.01,0.05,0.00,23.29,26.70,27.85,5.97,30.46,1021.50,2053.55,3478.94,3353.16,3639.12,350.27,325.72,8.28,0000 0000 0000 0000 000000
2013-08-23 00:46:40,0.09,0.05,0.00,23.28,26.70,27.84,5.98,30.50,1021.50,2053.62,3478.97,3353.19,3639.20,349.48,324.73,8.29,0000 0000 0000 0000 000000
2013-08-23 00:47:40,0.03,0.05,0.00,23.30,26.70,27.84,6.13,30.46,1021.50,2053.67,3478.97,3353.24,3639.17,351.27,326.37,8.30,0000 0000 0000 0000 000000
2013-08-23 00:48:40,0.03,0.05,0.00,23.35,26.70,27.83,5.87,30.46,1021.50,2053.64,3478.98,3353.23,3639.11,348.96,324.17,8.30,0000 0000 0000 0000 000000
2013-08-23 00:49:41,-0.02,0.05,0.00,23.38,26.69,27.83,5.88,30.29,1021.50,2053.66,3478.99,3353.40,3639.15,349.73,324.85,8.31,0000 0000 0000 0000 000000
2013-08-23 00:50:41,-0.01,0.05,0.00,23.48,26.69,27.80,5.87,30.21,1021.50,2053.75,3478.99,3353.59,3639.38,348.50,323.25,8.31,0000 0000 0000 0000 000000
2013-08-23 00:51:41,0.01,0.05,0.00,23.48,26.68,27.79,5.92,30.42,1021.50,2053.81,3478.96,3353.51,3639.39,349.47,324.90,8.32,0000 0000 0000 0000 000000
2013-08-23 00:52:41,0.06,0.05,0.00,23.19,26.67,27.75,5.89,30.38,1021.50,2053.85,3478.95,3353.46,3639.31,350.11,325.39,8.33,0000 0000 0000 0000 000000
2013-08-23 00:53:41,0.04,0.05,0.00,23.05,26.67,27.79,5.97,30.42,1021.50,2053.88,3478.95,3353.56,3639.40,350.51,325.94,8.33,0000 0000 0000 0000 000000
2013-08-23 00:54:42,-0.01,0.05,0.00,22.90,26.67,27.77,6.02,30.46,1021.50,2053.89,3478.98,3353.65,3639.40,350.00,325.41,8.34,0000 0000 0000 0000 000000
2013-08-23 00:55:42,-0.00,0.05,0.00,22.54,26.67,27.76,6.02,30.75,1021.50,2053.87,3478.98,3353.58,3639.32,348.50,324.91,8.34,0000 0000 0000 0000 000000
2013-08-23 00:56:42,0.00,0.05,0.00,22.28,26.67,27.78,6.06,30.71,1021.49,2053.82,3478.98,3353.51,3639.25,350.09,326.38,8.35,0000 0000 0000 0000 000000
2013-08-23 00:57:42,-0.01,0.05,0.00,22.13,26.67,27.82,6.07,30.71,1021.50,2053.79,3478.98,3353.57,3639.35,350.16,326.64,8.35,0000 0000 0000 0000 000000
2013-08-23 00:58:43,-0.04,0.05,0.00,22.58,26.66,27.76,5.96,30.50,1021.50,2053.77,3478.95,3353.42,3639.23,350.19,326.13,8.36,0000 0000 0000 0000 000000
2013-08-23 00:59:43,0.05,0.05,0.00,23.06,26.65,27.72,5.91,30.42,1021.49,2053.83,3478.96,3353.38,3639.25,349.54,325.30,8.37,0000 0000 0000 0000 000000
2013-08-23 01:00:43,0.02,0.05,0.00,23.18,26.65,27.70,5.87,30.54,1021.50,2053.90,3478.97,3353.65,3639.48,348.82,324.42,8.37,0000 0000 0000 0000 000000
2013-08-23 01:01:43,-0.04,0.05,0.00,23.28,26.65,27.72,6.04,30.63,1021.50,2053.95,3478.98,3353.78,3639.65,349.84,324.72,8.38,0000 0000 0000 0000 000000
2013-08-23 01:02:44,-0.01,0.05,0.00,23.38,26.65,27.70,5.94,30.46,1021.49,2053.94,3478.98,3353.72,3639.63,350.88,325.55,8.38,0000 0000 0000 0000 000000
2013-08-23 01:03:44,-0.01,0.05,0.00,23.47,26.65,27.71,5.88,30.25,1021.49,2053.96,3478.99,3353.84,3639.72,349.30,324.36,8.39,0000 0000 0000 0000 000000
2013-08-23 01:04:44,-0.00,0.05,0.00,23.55,26.64,27.72,5.83,30.33,1021.50,2053.96,3478.98,3353.90,3639.78,349.99,324.92,8.40,0000 0000 0000 0000 000000
2013-08-23 01:05:44,-0.02,0.05,0.00,23.61,26.63,27.73,5.95,30.46,1021.50,2053.96,3478.97,3353.86,3639.73,349.42,324.44,8.40,0000 0000 0000 0000 000000
2013-08-23 01:06:44,0.01,0.05,0.00,23.63,26.62,27.76,5.97,30.29,1021.50,2053.96,3478.98,3353.87,3639.79,350.81,325.28,8.41,0000 0000 0000 0000 000000
2013-08-23 01:07:44,0.00,0.05,0.00,23.61,26.62,27.78,6.01,30.33,1021.50,2053.93,3478.96,3353.83,3639.68,351.10,325.88,8.41,0000 0000 0000 0000 000000
2013-08-23 01:08:45,0.01,0.05,0.00,23.59,26.62,27.84,6.02,30.25,1021.49,2053.95,3478.96,3353.82,3639.63,351.46,326.28,8.42,0000 0000 0000 0000 000000
2013-08-23 01:09:45,0.01,0.05,0.00,23.63,26.62,27.89,6.07,30.38,1021.49,2053.97,3478.96,3353.83,3639.55,350.25,325.07,8.42,0000 0000 0000 0000 000000
2013-08-23 01:10:45,0.03,0.05,0.00,23.61,26.62,27.86,5.82,30.46,1021.49,2053.99,3478.98,3353.87,3639.49,348.41,323.74,8.43,0000 0000 0000 0000 000000
2013-08-23 01:11:45,-0.00,0.05,0.00,23.60,26.62,27.86,6.01,30.58,1021.45,2053.96,3478.98,3353.89,3639.46,349.65,324.53,8.44,0000 0000 0000 0000 000000
2013-08-23 01:12:45,-0.01,0.05,0.00,23.57,26.61,27.92,5.89,30.25,1021.43,2053.96,3478.98,3353.92,3639.49,350.27,325.09,8.44,0000 0000 0000 0000 000000
2013-08-23 01:13:46,-0.01,0.05,0.00,23.56,26.60,27.93,5.97,30.46,1021.45,2053.94,3478.99,3353.93,3639.68,349.50,324.38,8.45,0000 0000 0000 0000 000000
2013-08-23 01:14:46,-0.03,0.05,0.00,23.57,26.60,27.96,6.06,30.58,1021.48,2053.98,3478.97,3353.96,3639.82,350.58,325.44,8.45,0000 0000 0000 0000 000000
2013-08-23 01:15:46,-0.01,0.05,0.00,23.57,26.60,27.92,5.88,30.50,1021.49,2053.98,3478.99,3353.98,3639.88,349.34,324.27,8.46,0000 0000 0000 0000 000000
2013-08-23 01:16:46,-0.02,0.05,0.00,23.59,26.60,27.93,6.05,30.42,1021.50,2053.96,3478.99,3353.98,3639.92,350.01,324.69,8.47,0000 0000 0000 0000 000000
2013-08-23 01:17:47,-0.00,0.05,0.00,23.59,26.60,27.96,6.05,30.50,1021.48,2053.98,3478.99,3353.98,3639.95,350.83,326.09,8.47,0000 0000 0000 0000 000000
2013-08-23 01:18:47,0.01,0.05,0.00,23.63,26.59,27.92,5.92,30.63,1021.47,2053.99,3478.99,3353.99,3639.98,350.07,324.89,8.48,0000 0000 0000 0000 000000
2013-08-23 01:19:47,0.00,0.05,0.00,23.72,26.59,27.91,6.01,30.42,1021.47,2053.99,3478.99,3353.98,3639.99,350.54,324.94,8.48,0000 0000 0000 0000 000000
2013-08-23 01:20:47,0.00,0.05,0.00,23.72,26.58,27.92,5.98,30.33,1021.47,2053.99,3478.99,3353.99,3639.98,350.10,324.81,8.49,0000 0000 0000 0000 000000
2013-08-23 01:21:47,0.00,0.05,0.00,23.79,26.57,27.98,5.91,30.42,1021.48,2053.99,3478.99,3353.98,3639.96,349.87,324.53,8.50,0000 0000 0000 0000 000000
2013-08-23 01:22:47,0.00,0.05,0.00,23.81,26.57,27.99,5.97,30.50,1021.46,2053.98,3478.99,3353.99,3639.96,350.20,324.81,8.50,0000 0000 0000 0000 000000
2013-08-23 01:23:48,0.00,0.05,0.00,23.84,26.57,28.00,6.08,30.33,1021.45,2053.98,3478.99,3353.99,3639.97,351.78,326.03,8.51,0000 0000 0000 0000 000000
2013-08-23 01:24:48,0.00,0.05,0.00,23.83,26.57,27.99,5.78,30.63,1021.49,2053.99,3478.99,3353.99,3639.98,348.29,323.02,8.51,0000 0000 0000 0000 000000
2013-08-23 01:25:48,0.00,0.05,0.00,23.82,26.57,28.02,6.12,30.50,1021.45,2053.99,3478.99,3353.99,3639.98,350.40,325.30,8.52,0000 0000 0000 0000 000000
2013-08-23 01:26:48,0.00,0.05,0.00,23.82,26.57,28.02,5.95,30.25,1021.42,2053.99,3478.99,3353.99,3639.98,350.56,325.16,8.52,0000 0000 0000 0000 000000
2013-08-23 01:27:49,0.00,0.05,0.00,23.80,26.57,28.01,5.97,30.38,1021.47,2053.99,3478.99,3353.99,3639.99,350.19,324.68,8.53,0000 0000 0000 0000 000000
2013-08-23 01:28:49,0.00,0.05,0.00,23.78,26.57,27.93,6.07,30.58,1021.46,2053.99,3478.99,3353.99,3639.97,350.36,324.99,8.54,0000 0000 0000 0000 000000
2013-08-23 01:29:49,0.00,0.05,0.00,23.77,26.57,27.93,5.91,30.46,1021.43,2053.99,3478.99,3353.99,3639.97,349.31,324.02,8.54,0000 0000 0000 0000 000000
2013-08-23 01:30:49,0.00,0.05,0.00,23.77,26.57,27.97,6.00,30.67,1021.43,2053.98,3478.99,3353.99,3639.97,348.93,323.66,8.55,0000 0000 0000 0000 000000
2013-08-23 01:31:50,0.00,0.05,0.00,23.75,26.57,27.95,6.02,30.50,1021.41,2053.99,3478.99,3353.99,3639.98,350.10,324.86,8.55,0000 0000 0000 0000 000000
2013-08-23 01:32:50,0.00,0.05,0.00,23.72,26.57,27.94,5.90,30.71,1021.41,2053.99,3478.99,3353.99,3639.98,349.25,324.28,8.56,0000 0000 0000 0000 000000
2013-08-23 01:33:50,0.00,0.05,0.00,23.73,26.57,27.92,5.91,30.42,1021.44,2053.99,3478.99,3353.99,3639.97,349.50,324.27,8.57,0000 0000 0000 0000 000000
2013-08-23 01:34:50,0.00,0.05,0.00,23.72,26.57,27.93,6.00,30.58,1021.37,2053.99,3478.98,3353.98,3639.96,350.83,325.47,8.57,0000 0000 0000 0000 000000
2013-08-23 01:35:50,0.00,0.05,0.00,23.72,26.56,27.95,5.99,30.25,1021.32,2053.99,3478.99,3353.99,3639.98,350.40,325.05,8.58,0000 0000 0000 0000 000000
2013-08-23 01:36:51,0.00,0.05,0.00,23.78,26.56,27.91,6.00,30.42,1021.31,2053.99,3478.99,3353.99,3639.99,349.57,324.15,8.58,0000 0000 0000 0000 000000
2013-08-23 01:37:51,0.00,0.05,0.00,23.83,26.56,27.89,5.78,30.38,1021.32,2053.99,3478.98,3353.99,3639.97,348.91,323.88,8.59,0000 0000 0000 0000 000000
2013-08-23 01:38:51,0.00,0.05,0.00,23.85,26.55,27.88,6.04,30.63,1021.40,2053.99,3478.97,3353.99,3639.96,350.39,324.92,8.59,0000 0000 0000 0000 000000
2013-08-23 01:39:51,0.00,0.05,0.00,23.85,26.55,27.92,6.08,30.33,1021.30,2053.99,3478.96,3353.98,3639.97,350.82,325.29,8.60,0000 0000 0000 0000 000000
2013-08-23 01:40:51,0.00,0.05,0.00,23.89,26.55,27.93,5.94,30.75,1021.27,2053.99,3478.93,3353.99,3639.98,349.82,324.46,8.61,0000 0000 0000 0000 000000
2013-08-23 01:41:52,0.00,0.05,0.00,23.93,26.55,27.91,5.98,30.67,1021.20,2053.99,3478.95,3353.98,3639.97,349.68,324.01,8.61,0000 0000 0000 0000 000000
2013-08-23 01:42:52,0.00,0.05,0.00,23.85,26.55,27.91,5.98,30.67,1021.23,2053.99,3478.93,3353.99,3639.94,350.02,324.68,8.62,0000 0000 0000 0000 000000
2013-08-23 01:43:52,0.00,0.05,0.00,23.80,26.55,27.91,5.91,30.63,1021.27,2053.99,3478.97,3353.99,3639.96,349.74,324.55,8.62,0000 0000 0000 0000 000000
2013-08-23 01:44:52,-0.01,0.05,0.00,23.79,26.55,27.90,5.89,30.46,1021.27,2053.99,3478.98,3353.99,3639.98,349.00,323.62,8.63,0000 0000 0000 0000 000000
2013-08-23 01:45:52,0.00,0.05,0.00,23.84,26.55,27.94,5.89,30.54,1021.28,2053.99,3478.98,3353.99,3639.99,348.56,323.21,8.64,0000 0000 0000 0000 000000
2013-08-23 01:46:52,0.00,0.05,0.00,23.82,26.55,27.95,6.02,30.25,1021.27,2054.00,3478.99,3353.99,3639.99,351.38,325.90,8.64,0000 0000 0000 0000 000000
2013-08-23 01:47:52,0.00,0.05,0.00,23.78,26.55,27.95,6.02,30.29,1021.32,2054.00,3478.98,3353.99,3639.98,350.12,324.72,8.65,0000 0000 0000 0000 000000
2013-08-23 01:48:52,0.00,0.05,0.00,23.77,26.55,27.89,5.88,30.54,1021.34,2054.00,3478.95,3353.99,3639.98,350.08,324.42,8.65,0000 0000 0000 0000 000000
2013-08-23 01:49:53,0.00,0.05,0.00,23.79,26.55,27.93,5.83,30.46,1021.33,2054.00,3478.96,3353.99,3639.98,349.58,324.45,8.66,0000 0000 0000 0000 000000
2013-08-23 01:50:53,0.00,0.05,0.00,23.80,26.55,27.92,5.90,30.33,1021.26,2054.00,3478.95,3353.99,3639.99,350.22,324.77,8.66,0000 0000 0000 0000 000000
2013-08-23 01:51:53,0.00,0.05,0.00,23.79,26.55,27.92,5.91,30.21,1021.24,2054.00,3478.95,3353.99,3639.97,350.28,325.12,8.67,0000 0000 0000 0000 000000
2013-08-23 01:52:53,0.00,0.05,0.00,23.84,26.55,27.92,5.94,30.29,1021.22,2054.02,3478.97,3353.99,3639.98,350.12,324.62,8.68,0000 0000 0000 0000 000000
2013-08-23 01:53:53,0.00,0.05,0.00,23.82,26.55,27.93,5.93,30.21,1021.24,2054.01,3478.95,3353.99,3639.97,350.44,324.66,8.68,0000 0000 0000 0000 000000
2013-08-23 01:54:53,0.00,0.05,0.00,23.84,26.55,27.96,5.88,30.38,1021.18,2054.00,3478.93,3353.99,3639.93,348.99,323.95,8.69,0000 0000 0000 0000 000000
2013-08-23 01:55:54,0.00,0.05,0.00,23.90,26.55,27.94,6.03,30.33,1021.11,2054.00,3478.70,3353.99,3639.89,350.35,325.12,8.69,0000 0000 0000 0000 000000
2013-08-23 01:56:54,0.04,0.05,0.00,23.90,26.55,27.93,6.02,30.29,1021.08,2054.00,3478.63,3353.98,3639.88,351.53,325.82,8.70,0000 0000 0000 0000 000000
2013-08-23 01:57:54,0.00,0.05,0.00,23.91,26.55,27.96,6.04,30.21,1021.04,2054.00,3478.57,3353.98,3639.84,350.96,325.27,8.71,0000 0000 0000 0000 000000
2013-08-23 01:58:54,0.00,0.05,0.00,23.88,26.55,27.94,5.93,30.42,1021.05,2054.00,3478.70,3353.99,3639.87,349.46,324.05,8.71,0000 0000 0000 0000 000000
2013-08-23 01:59:54,-0.02,0.05,0.00,23.84,26.55,27.92,5.92,30.46,1021.02,2054.00,3478.80,3353.99,3639.90,349.02,323.75,8.72,0000 0000 0000 0000 000000
2013-08-23 02:00:54,-0.02,0.05,0.00,23.81,26.55,27.95,5.93,30.38,1021.04,2054.00,3478.86,3353.99,3639.93,350.70,325.14,8.72,0000 0000 0000 0000 000000
2013-08-23 02:01:55,0.00,0.05,0.00,23.86,26.55,27.97,5.96,30.54,1021.05,2054.00,3478.91,3353.99,3639.94,349.26,323.75,8.73,0000 0000 0000 0000 000000
2013-08-23 02:02:55,0.00,0.05,0.00,23.87,26.55,27.92,6.16,30.42,1021.03,2054.00,3478.91,3353.99,3639.96,350.45,324.83,8.74,0000 0000 0000 0000 000000
2013-08-23 02:03:55,0.00,0.05,0.00,23.86,26.55,27.93,5.83,30.42,1021.04,2054.00,3478.87,3353.99,3639.95,349.51,323.97,8.74,0000 0000 0000 0000 000000
2013-08-23 02:04:55,0.01,0.05,0.00,23.83,26.55,27.90,6.02,30.38,1021.02,2054.00,3478.75,3353.98,3639.92,350.69,325.10,8.75,0000 0000 0000 0000 000000
2013-08-23 02:05:55,0.01,0.05,0.00,23.80,26.55,27.91,5.82,30.33,1021.01,2054.01,3478.50,3353.99,3639.84,349.57,324.09,8.75,0000 0000 0000 0000 000000
2013-08-23 02:06:56,0.05,0.05,0.00,23.82,26.55,27.90,5.92,30.29,1021.02,2054.02,3478.55,3353.99,3639.85,349.91,324.39,8.76,0000 0000 0000 0000 000000
2013-08-23 02:07:56,-0.01,0.05,0.00,23.82,26.55,27.93,5.98,30.50,1021.03,2054.02,3478.50,3353.99,3639.84,349.77,324.52,8.76,0000 0000 0000 0000 000000
2013-08-23 02:08:56,0.00,0.05,0.00,23.80,26.55,27.92,6.01,30.33,1021.03,2054.01,3478.30,3353.98,3639.74,350.10,324.59,8.77,0000 0000 0000 0000 000000
2013-08-23 02:09:56,0.03,0.05,0.00,23.82,26.55,27.91,5.97,30.29,1021.02,2054.01,3478.50,3353.98,3639.81,349.84,324.32,8.78,0000 0000 0000 0000 000000
2013-08-23 02:10:56,-0.05,0.05,0.00,23.88,26.55,27.92,5.99,30.42,1021.03,2054.02,3478.60,3353.99,3639.90,350.97,325.09,8.78,0000 0000 0000 0000 000000
2013-08-23 02:11:56,0.00,0.05,0.00,23.94,26.55,27.93,5.85,30.42,1021.03,2054.02,3478.69,3353.99,3639.93,349.73,324.39,8.79,0000 0000 0000 0000 000000
2013-08-23 02:12:57,-0.01,0.05,0.00,23.94,26.55,27.92,5.98,30.33,1021.01,2054.02,3478.75,3353.99,3639.94,349.84,324.09,8.79,0000 0000 0000 0000 000000
2013-08-23 02:13:57,-0.02,0.05,0.00,23.95,26.55,27.93,5.96,30.38,1021.01,2054.02,3478.57,3353.99,3639.89,349.61,323.76,8.80,0000 0000 0000 0000 000000
2013-08-23 02:14:57,0.05,0.05,0.00,23.95,26.55,27.91,5.90,30.38,1021.01,2054.03,3478.41,3353.99,3639.90,349.76,324.10,8.81,0000 0000 0000 0000 000000
2013-08-23 02:15:57,0.02,0.05,0.00,23.94,26.55,27.92,6.00,30.21,1021.02,2054.04,3478.44,3353.99,3639.85,351.28,325.53,8.81,0000 0000 0000 0000 000000
2013-08-23 02:16:57,0.00,0.05,0.00,23.92,26.55,27.90,5.95,30.17,1021.01,2054.05,3478.44,3353.99,3639.80,349.75,323.89,8.82,0000 0000 0000 0000 000000
2013-08-23 02:17:58,0.01,0.05,0.00,23.91,26.55,27.92,5.85,30.29,1021.01,2054.05,3478.38,3353.99,3639.86,349.48,323.88,8.82,0000 0000 0000 0000 000000
2013-08-23 02:18:58,0.00,0.05,0.00,23.88,26.55,27.93,5.79,30.25,1021.01,2054.02,3478.21,3353.98,3639.83,349.64,324.08,8.83,0000 0000 0000 0000 000000
2013-08-23 02:19:58,0.00,0.05,0.00,23.86,26.55,27.95,5.98,30.42,1021.01,2054.01,3478.18,3353.99,3639.89,350.68,325.06,8.83,0000 0000 0000 0000 000000
2013-08-23 02:20:58,-0.02,0.05,0.00,23.87,26.55,27.95,5.94,30.38,1021.01,2054.02,3478.11,3353.98,3639.88,350.48,324.54,8.84,0000 0000 0000 0000 000000
2013-08-23 02:21:58,0.04,0.05,0.00,23.88,26.55,27.96,6.09,30.33,1021.01,2054.02,3478.05,3353.97,3639.73,350.87,324.94,8.85,0000 0000 0000 0000 000000
2013-08-23 02:22:58,0.00,0.05,0.00,23.88,26.55,27.93,5.92,30.38,1021.01,2054.03,3478.04,3353.98,3639.73,349.49,324.29,8.85,0000 0000 0000 0000 000000
2013-08-23 02:23:58,0.01,0.05,0.00,23.83,26.55,27.95,5.91,30.54,1021.01,2054.04,3478.03,3353.97,3639.62,349.31,323.81,8.86,0000 0000 0000 0000 000000
2013-08-23 02:24:59,0.01,0.05,0.00,23.81,26.55,27.94,5.95,30.46,1021.01,2054.02,3478.02,3353.98,3639.59,348.57,323.52,8.86,0000 0000 0000 0000 000000
2013-08-23 02:25:59,0.00,0.05,0.00,23.79,26.55,27.97,5.99,30.25,1021.01,2054.03,3478.02,3353.99,3639.54,349.87,324.60,8.87,0000 0000 0000 0000 000000
2013-08-23 02:26:59,0.01,0.05,0.00,23.84,26.55,27.98,6.08,30.46,1021.01,2054.05,3478.06,3353.99,3639.58,350.30,324.73,8.88,0000 0000 0000 0000 000000
2013-08-23 02:27:59,0.00,0.05,0.00,23.93,26.55,27.97,5.98,30.54,1021.01,2054.05,3478.07,3353.99,3639.50,349.88,324.20,8.88,0000 0000 0000 0000 000000
2013-08-23 02:28:59,0.00,0.05,0.00,23.94,26.55,27.94,5.99,30.46,1021.01,2054.02,3478.04,3353.99,3639.35,349.82,324.16,8.89,0000 0000 0000 0000 000000
2013-08-23 02:29:59,0.00,0.05,0.00,23.97,26.55,27.97,6.01,30.46,1021.01,2054.02,3478.03,3353.99,3639.32,349.48,323.99,8.89,0000 0000 0000 0000 000000
2013-08-23 02:31:00,0.00,0.05,0.00,24.00,26.55,28.03,5.98,30.38,1021.01,2054.01,3478.01,3353.99,3639.30,350.55,324.75,8.90,0000 0000 0000 0000 000000
2013-08-23 02:32:00,0.00,0.05,0.00,23.99,26.55,28.01,5.96,30.38,1021.01,2054.04,3478.03,3353.99,3639.19,350.33,324.58,8.90,0000 0000 0000 0000 000000
2013-08-23 02:33:00,0.01,0.05,0.00,23.98,26.55,27.98,5.97,30.33,1021.01,2054.04,3478.02,3353.99,3639.12,350.48,324.74,8.91,0000 0000 0000 0000 000000
2013-08-23 02:34:00,0.01,0.05,0.00,23.94,26.55,27.96,5.93,30.25,1021.01,2054.04,3478.01,3353.99,3639.14,351.20,325.44,8.92,0000 0000 0000 0000 000000
2013-08-23 02:35:01,-0.00,0.05,0.00,23.92,26.55,27.98,5.92,30.46,1021.01,2054.03,3478.03,3353.98,3639.17,349.85,323.98,8.92,0000 0000 0000 0000 000000
2013-08-23 02:36:01,-0.01,0.05,0.00,23.91,26.55,27.98,5.81,30.17,1021.01,2054.01,3478.04,3353.99,3639.09,349.73,324.35,8.93,0000 0000 0000 0000 000000
2013-08-23 02:37:01,0.00,0.05,0.00,23.92,26.55,27.95,5.99,30.50,1021.01,2054.00,3478.01,3353.99,3639.07,349.99,324.54,8.93,0000 0000 0000 0000 000000